sat.trackr.live / text

‹ back to catalog

STARLINK-37270

NORAD 68727 · 2026-081AE

PAYLOAD ACTIVE UNKNOWN

§ Identity

Operator
Country
US
Launch date
2026-04-14
Launch site
AFETR
Launch vehicle
Mass (kg)
RCS (m²)

Purposes: comms

External: N2YO · Heavens-Above · Gunter

§ Orbital elements

Epoch: 2026-09-19T11:07:59.075616Z

Period
93.85 min
Inclination
53.1588°
Eccentricity
0.0002753
Mean motion
15.34419957 rev/d
Perigee alt
460.8 km
Apogee alt
464.5 km
Semi-major
6,840.8 km
B*
6.9550e-4
RAAN
210.2661°
Arg perigee
73.8421°
Mean anomaly
286.2884°
Rev number
2,446

§ Raw data

STARLINK-372701 68727U 26081AE  26262.46387819  .00023211  00000+0  69550-3 0  99972 68727  53.1588 210.2661 0002753  73.8421 286.2884 15.34419957 24464

JSON: /api/v1/satellites/68727 · /tle

For live sub-satellite position, see the globe view (requires WebGL).

§ Visibility from observer

Set your observer location to see the next 7 days of passes ≥ 10°. The values pass through the URL so the page stays shareable.

No JS? Fill the form by hand. The geolocation button needs JavaScript.